COSMOS 886 DEB

Satellite information

Favourite Embed

Satellite Type and Status

DEBRISIN ORBIT

Key statistics

Satellite COSMOS 886 DEB at a glance.

Uptime

17884

Days in orbit

Revolutions

≈ 12.8

Per day

Orbit

HEO

HEO

Inclination

65.8

Latest

Satellite identification and parameters

Extended collection of information and parameters for COSMOS 886 DEB.

Object identification

Identified? True

Debris? True

Object name: COSMOS 886 DEB

International designator: 1976-126S

Object number (NORAD): 9721

Object ID (CCSDS): 9721

Country: COMMONWEALTH OF INDEPENDENT STATES (CIS)

Current information (Y/N): Y

RCS size: SMALL

Orbital parameters

Period: 112.739 minutes

Inclination: 65.8448 deg

SMA: 7730.55 km

Apoapsis: 2166.622 km

Periapsis: 538.207 km

RAAN: 119.3209 deg

Eccentricy: 0.10532336

Argument of periapsis: 90.4623 deg

Mean anomaly: 281.6936 deg

Mean motion: 12.77283159 rev/day

Mean motion (dot): 0.0000036 rev/day2

B* drag term: 0.00016822083 1/REarth

Two-line elements (TLE)

Creation date: Dec. 14, 2025, 3:07 a.m.

Reference frame: TEME

Reference center: EARTH

Epoch: Dec. 13, 2025, 3:09 p.m. UTC

TLE line 0: 0 COSMOS 886 DEB

TLE line 1: 1 09721U 76126S 25347.63181054 .00000360 00000-0 16822-3 0 9991

TLE line 2: 2 09721 65.8448 119.3209 1053234 90.4623 281.6936 12.77283159272666

Live tracking on map

Real-time ground track for satellite COSMOS 886 DEB.

In-orbit conjunctions

A list of the most updated potential collisions computed for object COSMOS 886 DEB.

Target Orbit TCA Probability of collision Miss distance Type
SL-8 R/B LEO 2025-03-09 04:52:51 0.000129574 636.0 (m) ROCKET BODY

Associated space launch

Second generation ASAT satellite

COSMOS 886 DEB was lifted into orbit during the mission ‘Tsiklon-2 | IS-A 4’, on board a Tsiklon-2 space rocket.

The launch took place on Dec. 27, 1976, 12:05 p.m. from 90.

For more information about the launch, click the button.

Launch to space Tsiklon-2 | IS-A 4
Tsiklon-2 | IS-A 4

Agency: N/A

Status: Launch Successful

Launch date: Dec. 27, 1976, 12:05 p.m. UTC

Rocket: Tsiklon-2

Launch pad: 90

Location: Baikonur Cosmodrome, Republic of Kazakhstan

...

Latest news about this satellite

There are no fresh news available about this satellite. Check back as we update our databases every day.


Newsletter sign-up

Weekly statistics, charts and insights to help you stay on top of the space industry.